Date String (YYYY-MM-DD hh:mm:ss) UTC,Instrument flags,absolute air pressure of the measurement (hPa),sample flow rate (lpm),inlet stack bypass flow (lpm),air temperature of the measurement (°C),ambient temperature measured by the external sensor (°C),aerosol sample conditioner tube jacket temperature (°C),OPC LED temperature (°C),internal box temperature (°C),relative humidity of the measurement (%),span deviation,mass concentration of particles derived from Lorenz-Mie calculation of OPC scattering (μg/m³),mass concentration of particles derived from Lorenz-Mie calculation of OPC scattering (μg/m³),mass concentration of particles derived from Lorenz-Mie calculation of OPC scattering (μg/m³)
DateTimeUTC,F1_M11,P_M11,Q1_M11,Q2_M11,T1_M11,T2_M11,T3_M11,T4_M11,T5_M11,U1_M11,ZSPAN_M11,X0_M11,X2_M11,X1_M11
2023-07-06 04:00:00,SystemResetWarning,0836.6,5.00,000.00,029.9,028.4,000.0,038.5,031.4,34.6,-002.0,0011.46,0008.57,0008.31
2023-07-06 04:01:00,SystemResetWarning,0836.7,5.00,000.00,029.9,028.5,000.0,038.5,031.4,34.6,-002.0,0011.53,0008.57,0008.31
2023-07-06 04:02:00,SystemResetWarning,0836.7,5.00,000.00,029.9,028.5,000.0,038.5,031.4,34.6,-001.7,0011.46,0008.57,0008.31
2023-07-06 04:03:00,SystemResetWarning,0836.8,5.00,000.00,030.0,028.6,000.0,038.5,031.5,34.6,-001.8,0011.55,0008.59,0008.32
2023-07-06 04:04:00,SystemResetWarning,0836.8,5.01,000.00,030.0,028.6,000.0,038.5,031.5,34.5,-001.7,0011.70,0008.62,0008.35
2023-07-06 04:05:00,SystemResetWarning,0836.8,5.00,000.00,030.0,028.7,000.0,038.5,031.5,34.5,-001.6,0011.69,0008.65,0008.39
2023-07-06 04:06:00,SystemResetWarning,0836.8,5.00,000.00,030.0,028.7,000.0,038.5,031.5,34.5,-001.7,0011.59,0008.67,0008.42
2023-07-06 04:07:00,SystemResetWarning,0836.8,5.00,000.00,030.0,028.7,000.0,038.5,031.5,34.5,-002.0,0011.63,0008.67,0008.42
2023-07-06 04:08:00,SystemResetWarning,0836.8,5.00,000.00,030.0,028.8,000.0,038.5,031.6,34.5,-002.1,0011.68,0008.67,0008.41
2023-07-06 04:09:00,SystemResetWarning,0836.7,5.00,000.00,030.1,028.8,000.0,038.6,031.6,34.4,-002.1,0011.78,0008.69,0008.41
2023-07-06 04:10:00,SystemResetWarning,0836.7,5.01,000.00,030.1,028.8,000.0,038.6,031.6,34.4,-002.2,0011.82,0008.72,0008.42
2023-07-06 04:11:00,SystemResetWarning,0836.7,5.01,000.00,030.1,028.8,000.0,038.6,031.6,34.4,-002.5,0011.89,0008.76,0008.43
2023-07-06 04:12:00,SystemResetWarning,0836.8,5.00,000.00,030.1,028.8,000.0,038.6,031.6,34.4,-002.5,0011.98,0008.83,0008.49
2023-07-06 04:13:00,SystemResetWarning,0836.8,5.00,000.00,030.1,028.9,000.0,038.6,031.7,34.3,-002.7,0012.58,0008.97,0008.57
2023-07-06 04:14:00,SystemResetWarning,0836.8,5.00,000.00,030.1,028.9,000.0,038.6,031.7,34.3,-002.6,0013.07,0009.05,0008.61
2023-07-06 04:15:00,SystemResetWarning,0836.8,5.00,000.00,030.2,028.9,000.0,038.6,031.7,34.3,-002.5,0012.96,0009.09,0008.64
2023-07-06 04:16:00,SystemResetWarning,0836.8,5.00,000.00,030.2,028.9,000.0,038.6,031.7,34.3,-002.5,0013.01,0009.13,0008.68
2023-07-06 04:17:00,SystemResetWarning,0836.8,5.00,000.00,030.2,028.9,000.0,038.7,031.7,34.3,-002.4,0013.02,0009.14,0008.70
2023-07-06 04:18:00,SystemResetWarning,0836.8,5.00,000.00,030.2,029.0,000.0,038.7,031.8,34.2,-002.2,0013.19,0009.19,0008.75
2023-07-06 04:19:00,SystemResetWarning,0836.8,5.00,000.00,030.2,029.0,000.0,038.7,031.8,34.3,-002.0,0013.40,0009.27,0008.83
2023-07-06 04:20:00,SystemResetWarning,0836.8,5.00,000.00,030.2,029.0,000.0,038.7,031.7,34.3,-002.0,0013.51,0009.32,0008.88
2023-07-06 04:21:00,SystemResetWarning,0836.7,5.00,000.00,030.3,029.0,000.0,038.7,031.8,34.3,-002.0,0013.71,0009.41,0008.95
2023-07-06 04:22:00,SystemResetWarning,0836.8,4.99,000.00,030.3,029.0,000.0,038.7,031.8,34.2,-001.9,0013.73,0009.44,0008.99
2023-07-06 04:23:00,SystemResetWarning,0836.8,5.00,000.00,030.3,029.0,000.0,038.7,031.8,34.2,-001.8,0013.67,0009.45,0009.02
2023-07-06 04:24:00,SystemResetWarning,0836.8,5.00,000.00,030.3,029.0,000.0,038.8,031.8,34.2,-001.8,0013.65,0009.41,0009.02
2023-07-06 04:25:00,SystemResetWarning,0836.7,5.00,000.00,030.3,029.0,000.0,038.8,031.8,34.2,-001.8,0013.46,0009.40,0009.02
2023-07-06 04:26:00,SystemResetWarning,0836.7,5.01,000.00,030.3,029.0,000.0,038.8,031.8,34.2,-001.7,0013.37,0009.36,0009.02
2023-07-06 04:27:00,SystemResetWarning,0836.6,5.00,000.00,030.3,029.0,000.0,038.8,031.8,34.2,-001.5,0013.50,0009.38,0009.03
2023-07-06 04:28:00,SystemResetWarning,0836.6,5.00,000.00,030.4,028.8,000.0,038.8,031.8,34.1,-001.5,0014.33,0009.42,0009.06
2023-07-06 04:29:00,SystemResetWarning,0836.6,4.99,000.00,030.3,026.9,000.0,038.7,031.7,34.1,-001.4,0014.26,0009.45,0009.08
2023-07-06 04:30:00,SystemResetWarning,0836.6,5.01,000.00,030.2,025.6,000.0,038.6,031.4,34.2,-001.5,0014.11,0009.42,0009.07
2023-07-06 04:31:00,SystemResetWarning,0836.6,5.01,000.00,030.1,025.4,000.0,038.5,031.0,34.5,-001.6,0013.94,0009.39,0009.06
2023-07-06 04:32:00,SystemResetWarning,0836.6,5.00,000.00,029.9,025.7,000.0,038.5,030.9,34.9,-001.6,0013.84,0009.37,0009.06
2023-07-06 04:33:00,SystemResetWarning,0836.5,4.98,000.00,029.9,026.2,000.0,038.5,031.0,35.1,-001.4,0013.80,0009.37,0009.06
2023-07-06 04:34:00,SystemResetWarning,0836.6,5.02,000.00,030.0,026.6,000.0,038.5,031.1,34.8,-001.4,0013.78,0009.39,0009.07
2023-07-06 04:35:00,SystemResetWarning,0836.6,4.98,000.00,030.1,026.9,000.0,038.5,031.2,34.5,-001.5,0013.26,0009.37,0009.08
2023-07-06 04:36:00,SystemResetWarning,0836.6,5.02,000.00,030.2,027.3,000.0,038.5,031.3,34.2,-001.4,0013.02,0009.35,0009.08
2023-07-06 04:37:00,SystemResetWarning,0836.6,5.00,000.00,030.3,027.5,000.0,038.5,031.3,34.1,-001.4,0013.14,0009.42,0009.12
2023-07-06 04:38:00,SystemResetWarning,0836.6,5.00,000.00,030.3,027.7,000.0,038.6,031.3,34.1,-001.6,0013.07,0009.42,0009.13
2023-07-06 04:39:00,SystemResetWarning,0836.5,5.00,000.00,030.3,027.9,000.0,038.6,031.4,34.1,-001.5,0012.23,0009.41,0009.13
2023-07-06 04:40:00,SystemResetWarning,0836.5,5.00,000.00,030.3,028.1,000.0,038.6,031.4,34.0,-001.3,0012.15,0009.37,0009.11
2023-07-06 04:41:00,SystemResetWarning,0836.6,5.00,000.00,030.4,028.2,000.0,038.7,031.4,33.8,-001.3,0012.12,0009.39,0009.12
2023-07-06 04:42:00,SystemResetWarning,0836.6,5.00,000.00,030.4,028.3,000.0,038.7,031.4,33.8,-001.3,0012.14,0009.40,0009.13
2023-07-06 04:43:00,SystemResetWarning,0836.6,5.00,000.00,030.4,028.4,000.0,038.7,031.5,33.7,-001.1,0012.11,0009.38,0009.12
2023-07-06 04:44:00,SystemResetWarning,0836.6,5.00,000.00,030.4,028.4,000.0,038.7,031.5,33.7,-001.2,0012.18,0009.40,0009.13
2023-07-06 04:45:00,SystemResetWarning,0836.6,4.99,000.00,030.4,028.5,000.0,038.7,031.5,33.8,-001.1,0012.24,0009.39,0009.11
2023-07-06 04:46:00,SystemResetWarning,0836.6,4.99,000.00,030.4,028.5,000.0,038.8,031.5,33.8,-001.1,0012.28,0009.36,0009.08
2023-07-06 04:47:00,SystemResetWarning,0836.6,5.00,000.00,030.4,028.6,000.0,038.8,031.6,33.8,-001.1,0012.40,0009.40,0009.09
2023-07-06 04:48:00,SystemResetWarning,0836.6,5.00,000.00,030.4,028.6,000.0,038.8,031.6,33.8,-001.3,0012.45,0009.41,0009.08
2023-07-06 04:49:00,SystemResetWarning,0836.6,5.01,000.00,030.4,028.7,000.0,038.8,031.6,33.7,-001.1,0012.54,0009.43,0009.08
2023-07-06 04:50:00,SystemResetWarning,0836.6,5.01,000.00,030.4,028.7,000.0,038.8,031.6,33.7,-001.1,0012.57,0009.43,0009.09
2023-07-06 04:51:00,SystemResetWarning,0836.6,5.00,000.00,030.5,028.7,000.0,038.8,031.7,33.7,-001.3,0012.61,0009.45,0009.11
2023-07-06 04:52:00,SystemResetWarning,0836.6,5.00,000.00,030.5,028.8,000.0,038.8,031.7,33.6,-001.0,0012.68,0009.46,0009.11
2023-07-06 04:53:00,SystemResetWarning,0836.6,5.00,000.00,030.5,028.8,000.0,038.9,031.7,33.7,-000.7,0012.72,0009.48,0009.11
2023-07-06 04:54:00,SystemResetWarning,0836.7,5.00,000.00,030.5,028.8,000.0,038.9,031.7,33.7,-000.6,0012.74,0009.48,0009.10
2023-07-06 04:55:00,SystemResetWarning,0836.8,4.99,000.00,030.5,028.8,000.0,038.9,031.7,33.7,-000.4,0012.67,0009.45,0009.08
2023-07-06 04:56:00,SystemResetWarning,0836.8,5.00,000.00,030.5,028.8,000.0,038.9,031.7,33.6,-000.6,0012.64,0009.43,0009.07
2023-07-06 04:57:00,SystemResetWarning,0836.8,5.00,000.00,030.5,028.8,000.0,038.9,031.7,33.6,-000.4,0012.60,0009.42,0009.06
2023-07-06 04:58:00,SystemResetWarning,0836.8,5.00,000.00,030.5,028.8,000.0,038.9,031.7,33.6,-000.4,0012.52,0009.39,0009.04
2023-07-06 04:59:00,SystemResetWarning,0836.8,5.01,000.00,030.5,028.8,000.0,038.9,031.8,33.6,-000.3,0012.45,0009.36,0009.02
